This demonstration page uses our WeatherBlox Daily Observations layout. Learn more.

Left ArrowRight Arrow

39.51506, -84.39828

Hourly Observations for January 22, 2019

Temp ( °F °C ) Dew Point ( °F °C ) Humidity (%) Winds ( mph kmh ) Pressure ( in mb ) Visibility ( mi km ) Precip ( " mm )
12:15 am 00:15 Clear 11 -11.8 -1 -18.3 59 59 E 3 6 30.59 1036 10 16 0.00 0.00
12:35 am 00:35 Mostly Cloudy 11 -11.6 -1 -18.1 59 59 ENE 7 11 30.59 1036 10 16 0.00 0.00
12:55 am 00:55 Mostly Cloudy 11 -11.4 0 -17.7 60 60 ENE 6 9 30.59 1036 10 16 0.00 0.00
1:15 am 01:15 Cloudy 12 -11.1 0 -17.7 59 59 E 3 6 30.59 1036 10 16 0.00 0.00
1:35 am 01:35 Cloudy 13 -10.8 0 -17.6 58 58 Calm 30.59 1036 10 16 0.00 0.00
1:55 am 01:55 Mostly Cloudy 13 -10.6 1 -17.1 59 59 E 7 11 30.56 1035 10 16 0.00 0.00
2:15 am 02:15 Cloudy 12 -11 1 -17 62 62 ENE 6 9 30.56 1035 10 16 0.00 0.00
2:35 am 02:35 Partly Cloudy 13 -10.6 2 -16.9 60 60 E 3 6 30.56 1035 10 16 0.00 0.00
2:55 am 02:55 Clear 13 -10.6 1 -17.1 59 59 E 6 9 30.56 1035 10 16 0.00 0.00
3:15 am 03:15 Clear 13 -10.5 2 -16.8 60 60 Calm 30.56 1035 10 16 0.00 0.00
3:35 am 03:35 Clear 13 -10.6 3 -16.3 63 63 NE 6 9 30.56 1035 10 16 0.00 0.00
3:55 am 03:55 Clear 13 -10.7 2 -16.5 63 63 ENE 5 7 30.53 1034 10 16 0.00 0.00
4:15 am 04:15 Clear 13 -10.5 2 -16.6 61 61 E 3 6 30.53 1034 10 16 0.00 0.00
4:35 am 04:35 Clear 13 -10.5 2 -16.7 61 61 Calm 30.53 1034 10 16 0.00 0.00
4:55 am 04:55 Clear 13 -10.3 2 -16.8 59 59 Calm 30.53 1034 10 16 0.00 0.00
5:15 am 05:15 Clear 14 -10.2 1 -17 58 58 Calm 30.53 1034 10 16 0.00 0.00
5:35 am 05:35 Clear 14 -10.2 2 -16.9 58 58 E 5 7 30.53 1034 10 16 0.00 0.00
5:55 am 05:55 Clear 13 -10.5 2 -16.5 62 62 Calm 30.53 1034 10 16 0.00 0.00
6:15 am 06:15 Clear 13 -10.5 2 -16.5 62 62 Calm 30.50 1033 10 16 0.00 0.00
6:35 am 06:35 Clear 13 -10.4 2 -16.5 61 61 Calm 30.50 1033 10 16 0.00 0.00
6:55 am 06:55 Clear 14 -10.2 2 -16.4 61 61 Calm 30.50 1033 10 16 0.00 0.00
7:15 am 07:15 Clear 14 -10 2 -16.6 59 59 Calm 30.50 1033 10 16 0.00 0.00
7:35 am 07:35 Clear 14 -9.8 2 -16.5 58 58 SE 3 6 30.50 1033 10 16 0.00 0.00
7:55 am 07:55 Sunny 15 -9.6 2 -16.6 57 57 SE 6 9 30.53 1034 10 16 0.00 0.00
8:15 am 08:15 Sunny 15 -9.5 2 -16.4 58 58 SE 5 7 30.50 1033 10 16 0.00 0.00
8:35 am 08:35 Sunny 15 -9.3 3 -16 59 59 Calm 30.50 1033 10 16 0.00 0.00
8:55 am 08:55 Sunny 16 -8.9 3 -16.1 56 56 SE 3 6 30.50 1033 10 16 0.00 0.00
9:15 am 09:15 Sunny 17 -8.4 3 -16 55 55 SE 6 9 30.50 1033 10 16 0.00 0.00
9:35 am 09:35 Sunny 18 -7.9 3 -15.9 53 53 SSE 8 13 30.50 1033 10 16 0.00 0.00
9:55 am 09:55 Sunny 19 -7.5 3 -15.9 51 51 SE 7 11 30.48 1032 10 16 0.00 0.00
10:15 am 10:15 Sunny 20 -6.8 4 -15.8 49 49 SSE 8 13 30.48 1032 10 16 0.00 0.00
10:35 am 10:35 Sunny 21 -6.1 4 -15.6 47 47 SE 7 11 30.48 1032 10 16 0.00 0.00
10:55 am 10:55 Sunny 23 -5.2 5 -15 46 46 SE 6 9 30.48 1032 10 16 0.00 0.00
11:15 am 11:15 Sunny 24 -4.4 6 -14.5 46 46 SSE 8 13 30.48 1032 10 16 0.00 0.00
11:35 am 11:35 Sunny 26 -3.2 8 -13.4 46 46 S 6 9 30.42 1030 10 16 0.00 0.00
11:55 am 11:55 Sunny 28 -2 9 -12.9 43 43 SSE 5 7 30.42 1030 10 16 0.00 0.00
12:15 pm 12:15 Sunny 30 -1 10 -12.1 43 43 S 7 11 30.42 1030 10 16 0.00 0.00
12:35 pm 12:35 Sunny 31 -0.5 11 -11.5 44 44 S 10 17 30.39 1029 10 16 0.00 0.00
12:55 pm 12:55 Sunny 32 0.1 12 -11.2 43 43 S 9 15 30.39 1029 10 16 0.00 0.00
1:15 pm 13:15 Sunny 33 0.4 13 -10.7 44 44 S 14 22 30.36 1028 10 16 0.00 0.00
1:35 pm 13:35 Sunny 33 0.7 14 -10.2 44 44 S 9 15 30.36 1028 10 16 0.00 0.00
1:55 pm 13:55 Sunny 34 1.2 15 -9.4 46 46 S 10 17 30.33 1027 10 16 0.00 0.00
2:15 pm 14:15 Sunny 35 1.8 15 -9.4 44 44 S 13 20 30.33 1027 10 16 0.00 0.00
2:35 pm 14:35 Sunny 36 2.2 16 -9 44 44 S 13 20 30.30 1026 10 16 0.00 0.00
2:55 pm 14:55 Sunny 37 2.8 17 -8.5 44 44 S 13 20 30.30 1026 10 16 0.00 0.00
3:15 pm 15:15 Sunny 38 3.2 18 -8 44 44 S 13 20 30.27 1025 10 16 0.00 0.00
3:35 pm 15:35 Sunny 38 3.3 18 -7.9 44 44 S 13 20 30.27 1025 10 16 0.00 0.00
3:55 pm 15:55 Sunny 38 3.3 18 -7.8 44 44 SSE 13 20 30.24 1024 10 16 0.00 0.00
4:15 pm 16:15 Sunny 37 2.9 19 -7.3 47 47 S 8 13 30.24 1024 10 16 0.00 0.00
4:35 pm 16:35 Sunny 38 3.3 19 -7.3 46 46 S 12 19 30.24 1024 10 16 0.00 0.00
4:55 pm 16:55 Sunny 38 3.5 19 -7.1 46 46 S 12 19 30.24 1024 10 16 0.00 0.00
5:15 pm 17:15 Partly Cloudy 38 3.4 20 -6.7 48 48 S 10 17 30.24 1024 10 16 0.00 0.00
5:35 pm 17:35 Mostly Cloudy 39 3.7 21 -6.2 49 49 S 8 13 30.24 1024 10 16 0.00 0.00
5:55 pm 17:55 Mostly Cloudy 39 3.7 21 -6 50 50 S 9 15 30.24 1024 10 16 0.00 0.00
6:15 pm 18:15 Cloudy 39 4 22 -5.8 49 49 S 9 15 30.24 1024 10 16 0.00 0.00
6:35 pm 18:35 Mostly Cloudy 40 4.2 21 -6 48 48 S 9 15 30.24 1024 10 16 0.00 0.00
6:55 pm 18:55 Mostly Cloudy 40 4.3 22 -5.6 49 49 S 6 9 30.21 1023 10 16 0.00 0.00
7:15 pm 19:15 Clear 40 4.5 22 -5.5 49 49 S 8 13 30.21 1023 10 16 0.00 0.00
7:35 pm 19:35 Mostly Cloudy 40 4.6 22 -5.4 49 49 S 8 13 30.21 1023 10 16 0.00 0.00
7:55 pm 19:55 Partly Cloudy 40 4.6 23 -5.1 50 50 S 8 13 30.21 1023 10 16 0.00 0.00
8:15 pm 20:15 Clear 41 5.2 23 -5 48 48 S 9 15 30.18 1022 10 16 0.00 0.00
8:35 pm 20:35 Mostly Cloudy 42 5.4 24 -4.7 49 49 S 8 13 30.18 1022 10 16 0.00 0.00
8:55 pm 20:55 Partly Cloudy 42 5.6 24 -4.2 50 50 S 9 15 30.15 1021 10 16 0.00 0.00
9:15 pm 21:15 Cloudy 42 5.5 26 -3.4 53 53 S 8 13 30.15 1021 10 16 0.00 0.00
9:35 pm 21:35 Clear 42 5.8 27 -2.8 54 54 S 10 17 30.12 1020 10 16 0.00 0.00
9:55 pm 21:55 Partly Cloudy 42 5.8 28 -2 58 58 S 9 15 30.12 1020 10 16 0.00 0.00
10:15 pm 22:15 Mostly Cloudy 42 5.8 29 -1.5 60 60 S 12 19 30.12 1020 10 16 0.00 0.00
10:35 pm 22:35 Mostly Cloudy 43 5.9 30 -1.1 61 61 S 10 17 30.09 1019 10 16 0.00 0.00
10:55 pm 22:55 Cloudy 42 5.7 30 -1 62 62 S 10 17 30.09 1019 10 16 0.00 0.00
11:15 pm 23:15 Cloudy 43 5.9 30 -1.3 60 60 S 12 19 30.09 1019 10 16 0.00 0.00
11:35 pm 23:35 Cloudy 43 6 29 -1.6 59 59 S 13 20 30.06 1018 10 16 0.00 0.00
11:55 pm 23:55 Cloudy 42 5.8 29 -1.7 59 59 S 10 17 30.06 1018 10 16 0.00 0.00

Powered by AerisWeather